Location: Shepherdstown, WV
(39.4326°N, 77.8042°W)
Time: 22:21:47
(UTC-04:00)

Vanguard 1 Rocket - Pass Details

Date: 08 August 2021
Orbit: 650 x 4226 km, 34.3° (Epoch: 16 September)

Event Time Altitude Azimuth Distance (km) Brightness Sun altitude
Rises 16:06:46 0° 281° (W) 6,093 12.2 46.2°
Reaches altitude 10° 16:12:54 10° 267° (W) 4,327 11.8 45.1°
Maximum altitude 16:19:29 18° 229° (SW) 2,874 11.1 43.9°
Drops below altitude 10° 16:24:09 10° 187° (S) 2,894 10.3 43.0°
Sets 16:27:11 0° 167° (SSE) 3,501 10.4 42.4°
